Year,Month,Day,Hour,Minute,Value (Times are PST for temperature in C)
2008,10,30,00,00,8.70
2008,10,30,00,01,8.70
2008,10,30,00,02,8.80
2008,10,30,00,03,8.80
2008,10,30,00,04,8.80
2008,10,30,00,05,8.80
2008,10,30,00,06,8.80
2008,10,30,00,07,8.80
2008,10,30,00,08,8.80
2008,10,30,00,09,8.80
2008,10,30,00,10,8.80
2008,10,30,00,11,8.90
2008,10,30,00,12,8.90
2008,10,30,00,13,8.90
2008,10,30,00,14,8.90
2008,10,30,00,15,9.00
2008,10,30,00,16,9.00
2008,10,30,00,17,9.00
2008,10,30,00,18,9.10
2008,10,30,00,19,9.10
2008,10,30,00,20,9.10
2008,10,30,00,21,9.20
2008,10,30,00,22,9.20
2008,10,30,00,23,9.20
2008,10,30,00,24,9.20
2008,10,30,00,25,9.20
2008,10,30,00,26,9.20
2008,10,30,00,27,9.20
2008,10,30,00,28,9.30
2008,10,30,00,29,9.30
2008,10,30,00,30,9.30
2008,10,30,00,31,9.30
2008,10,30,00,32,9.30
2008,10,30,00,33,9.30
2008,10,30,00,34,9.30
2008,10,30,00,35,9.30
2008,10,30,00,36,9.40
2008,10,30,00,37,9.40
2008,10,30,00,38,9.40
2008,10,30,00,39,9.40
2008,10,30,00,40,9.40
2008,10,30,00,41,9.40
2008,10,30,00,42,9.40
2008,10,30,00,43,9.40
2008,10,30,00,44,9.40
2008,10,30,00,45,9.40
2008,10,30,00,46,9.40
2008,10,30,00,47,9.40
2008,10,30,00,48,9.40
2008,10,30,00,49,9.40
2008,10,30,00,50,9.40
2008,10,30,00,51,9.40
2008,10,30,00,52,9.40
2008,10,30,00,53,9.40
2008,10,30,00,54,9.40
2008,10,30,00,55,9.50
2008,10,30,00,56,9.50
2008,10,30,00,57,9.50
2008,10,30,00,58,9.40
2008,10,30,00,59,9.40
2008,10,30,01,00,9.40
2008,10,30,01,01,9.40
2008,10,30,01,02,9.40
2008,10,30,01,03,9.40
2008,10,30,01,04,9.40
2008,10,30,01,05,9.40
2008,10,30,01,06,9.40
2008,10,30,01,07,9.40
2008,10,30,01,08,9.40
2008,10,30,01,09,9.40
2008,10,30,01,10,9.40
2008,10,30,01,11,9.40
2008,10,30,01,12,9.40
2008,10,30,01,13,9.40
2008,10,30,01,14,9.50
2008,10,30,01,15,9.50
2008,10,30,01,16,9.50
2008,10,30,01,17,9.60
2008,10,30,01,18,9.60
2008,10,30,01,19,9.60
2008,10,30,01,20,9.60
2008,10,30,01,21,9.60
2008,10,30,01,22,9.60
2008,10,30,01,23,9.60
2008,10,30,01,24,9.60
2008,10,30,01,25,9.60
2008,10,30,01,26,9.60
2008,10,30,01,27,9.60
2008,10,30,01,28,9.60
2008,10,30,01,29,9.60
2008,10,30,01,30,9.50
2008,10,30,01,31,9.50
2008,10,30,01,32,9.50
2008,10,30,01,33,9.50
2008,10,30,01,34,9.50
2008,10,30,01,35,9.50
2008,10,30,01,36,9.50
2008,10,30,01,37,9.50
2008,10,30,01,38,9.50
2008,10,30,01,39,9.50
2008,10,30,01,40,9.50
2008,10,30,01,41,9.50
2008,10,30,01,42,9.50
2008,10,30,01,43,9.50
2008,10,30,01,44,9.50
2008,10,30,01,45,9.50
2008,10,30,01,46,9.50
2008,10,30,01,47,9.50
2008,10,30,01,48,9.50
2008,10,30,01,49,9.50
2008,10,30,01,50,9.50
2008,10,30,01,51,9.50
2008,10,30,01,52,9.40
2008,10,30,01,53,9.40
2008,10,30,01,54,9.40
2008,10,30,01,55,9.40
2008,10,30,01,56,9.50
2008,10,30,01,57,9.50
2008,10,30,01,58,9.50
2008,10,30,01,59,9.50
2008,10,30,02,00,9.50
2008,10,30,02,01,9.50
2008,10,30,02,02,9.50
2008,10,30,02,03,9.50
2008,10,30,02,04,9.40
2008,10,30,02,05,9.40
2008,10,30,02,06,9.40
2008,10,30,02,07,9.40
2008,10,30,02,08,9.40
2008,10,30,02,09,9.40
2008,10,30,02,10,9.40
2008,10,30,02,11,9.40
2008,10,30,02,12,9.40
2008,10,30,02,13,9.40
2008,10,30,02,14,9.40
2008,10,30,02,15,9.40
2008,10,30,02,16,9.40
2008,10,30,02,17,9.40
2008,10,30,02,18,9.40
2008,10,30,02,19,9.40
2008,10,30,02,20,9.40
2008,10,30,02,21,9.40
2008,10,30,02,22,9.40
2008,10,30,02,23,9.50
2008,10,30,02,24,9.50
2008,10,30,02,25,9.50
2008,10,30,02,26,9.50
2008,10,30,02,27,9.60
2008,10,30,02,28,9.60
2008,10,30,02,29,9.60
2008,10,30,02,30,9.60
2008,10,30,02,31,9.60
2008,10,30,02,32,9.60
2008,10,30,02,33,9.60
2008,10,30,02,34,9.60
2008,10,30,02,35,9.60
2008,10,30,02,36,9.60
2008,10,30,02,37,9.60
2008,10,30,02,38,9.60
2008,10,30,02,39,9.60
2008,10,30,02,40,9.60
2008,10,30,02,41,9.60
2008,10,30,02,42,9.60
2008,10,30,02,43,9.60
2008,10,30,02,44,9.60
2008,10,30,02,45,9.60
2008,10,30,02,46,9.60
2008,10,30,02,47,9.60
2008,10,30,02,48,9.60
2008,10,30,02,49,9.60
2008,10,30,02,50,9.60
2008,10,30,02,51,9.60
2008,10,30,02,52,9.60
2008,10,30,02,53,9.60
2008,10,30,02,54,9.60
2008,10,30,02,55,9.60
2008,10,30,02,56,9.60
2008,10,30,02,57,9.60
2008,10,30,02,58,9.60
2008,10,30,02,59,9.60
2008,10,30,03,00,9.60
2008,10,30,03,01,9.60
2008,10,30,03,02,9.60
2008,10,30,03,03,9.60
2008,10,30,03,04,9.60
2008,10,30,03,05,9.50
2008,10,30,03,06,9.50
2008,10,30,03,07,9.50
2008,10,30,03,08,9.50
2008,10,30,03,09,9.50
2008,10,30,03,10,9.50
2008,10,30,03,11,9.40
2008,10,30,03,12,9.50
2008,10,30,03,13,9.40
2008,10,30,03,14,9.40
2008,10,30,03,15,9.40
2008,10,30,03,16,9.50
2008,10,30,03,17,9.50
2008,10,30,03,18,9.50
2008,10,30,03,19,9.50
2008,10,30,03,20,9.50
2008,10,30,03,21,9.50
2008,10,30,03,22,9.50
2008,10,30,03,23,9.50
2008,10,30,03,24,9.50
2008,10,30,03,25,9.50
2008,10,30,03,26,9.50
2008,10,30,03,27,9.50
2008,10,30,03,28,9.50
2008,10,30,03,29,9.50
2008,10,30,03,30,9.50
2008,10,30,03,31,9.50
2008,10,30,03,32,9.50
2008,10,30,03,33,9.40
2008,10,30,03,34,9.40
2008,10,30,03,35,9.40
2008,10,30,03,36,9.40
2008,10,30,03,37,9.40
2008,10,30,03,38,9.40
2008,10,30,03,39,9.40
2008,10,30,03,40,9.40
2008,10,30,03,41,9.40
2008,10,30,03,42,9.40
2008,10,30,03,43,9.40
2008,10,30,03,44,9.40
2008,10,30,03,45,9.40
2008,10,30,03,46,9.40
2008,10,30,03,47,9.40
2008,10,30,03,48,9.40
2008,10,30,03,49,9.40
2008,10,30,03,50,9.40
2008,10,30,03,51,9.40
2008,10,30,03,52,9.40
2008,10,30,03,53,9.40
2008,10,30,03,54,9.30
2008,10,30,03,55,9.30
2008,10,30,03,56,9.30
2008,10,30,03,57,9.30
2008,10,30,03,58,9.40
2008,10,30,03,59,9.40
2008,10,30,04,00,9.40
2008,10,30,04,01,9.40
2008,10,30,04,02,9.50
2008,10,30,04,03,9.50
2008,10,30,04,04,9.50
2008,10,30,04,05,9.50
2008,10,30,04,06,9.50
2008,10,30,04,07,9.50
2008,10,30,04,08,9.50
2008,10,30,04,09,9.50
2008,10,30,04,10,9.40
2008,10,30,04,11,9.40
2008,10,30,04,12,9.40
2008,10,30,04,13,9.40
2008,10,30,04,14,9.40
2008,10,30,04,15,9.40
2008,10,30,04,16,9.40
2008,10,30,04,17,9.40
2008,10,30,04,18,9.40
2008,10,30,04,19,9.40
2008,10,30,04,20,9.40
2008,10,30,04,21,9.50
2008,10,30,04,22,9.50
2008,10,30,04,23,9.50
2008,10,30,04,24,9.50
2008,10,30,04,25,9.60
2008,10,30,04,26,9.60
2008,10,30,04,27,9.50
2008,10,30,04,28,9.60
2008,10,30,04,29,9.50
2008,10,30,04,30,9.50
2008,10,30,04,31,9.50
2008,10,30,04,32,9.60
2008,10,30,04,33,9.60
2008,10,30,04,34,9.60
2008,10,30,04,35,9.60
2008,10,30,04,36,9.60
2008,10,30,04,37,9.60
2008,10,30,04,38,9.60
2008,10,30,04,39,9.60
2008,10,30,04,40,9.60
2008,10,30,04,41,9.60
2008,10,30,04,42,9.60
2008,10,30,04,43,9.60
2008,10,30,04,44,9.60
2008,10,30,04,45,9.60
2008,10,30,04,46,9.50
2008,10,30,04,47,9.50
2008,10,30,04,48,9.50
2008,10,30,04,49,9.50
2008,10,30,04,50,9.50
2008,10,30,04,51,9.50
2008,10,30,04,52,9.50
2008,10,30,04,53,9.50
2008,10,30,04,54,9.50
2008,10,30,04,55,9.50
2008,10,30,04,56,9.50
2008,10,30,04,57,9.50
2008,10,30,04,58,9.50
2008,10,30,04,59,9.50
2008,10,30,05,00,9.50
2008,10,30,05,01,9.50
2008,10,30,05,02,9.50
2008,10,30,05,03,9.50
2008,10,30,05,04,9.40
2008,10,30,05,05,9.40
2008,10,30,05,06,9.40
2008,10,30,05,07,9.50
2008,10,30,05,08,9.50
2008,10,30,05,09,9.50
2008,10,30,05,10,9.50
2008,10,30,05,11,9.50
2008,10,30,05,12,9.40
2008,10,30,05,13,9.40
2008,10,30,05,14,9.40
2008,10,30,05,15,9.40
2008,10,30,05,16,9.40
2008,10,30,05,17,9.40
2008,10,30,05,18,9.40
2008,10,30,05,19,9.40
2008,10,30,05,20,9.40
2008,10,30,05,21,9.40
2008,10,30,05,22,9.40
2008,10,30,05,23,9.40
2008,10,30,05,24,9.40
2008,10,30,05,25,9.40
2008,10,30,05,26,9.40
2008,10,30,05,27,9.40
2008,10,30,05,28,9.40
2008,10,30,05,29,9.30
2008,10,30,05,30,9.30
2008,10,30,05,31,9.30
2008,10,30,05,32,9.30
2008,10,30,05,33,9.30
2008,10,30,05,34,9.30
2008,10,30,05,35,9.30
2008,10,30,05,36,9.30
2008,10,30,05,37,9.30
2008,10,30,05,38,9.30
2008,10,30,05,39,9.30
2008,10,30,05,40,9.30
2008,10,30,05,41,9.30
2008,10,30,05,42,9.20
2008,10,30,05,43,9.20
2008,10,30,05,44,9.20
2008,10,30,05,45,9.20
2008,10,30,05,46,9.20
2008,10,30,05,47,9.20
2008,10,30,05,48,9.20
2008,10,30,05,49,9.20
2008,10,30,05,50,9.20
2008,10,30,05,51,9.20
2008,10,30,05,52,9.20
2008,10,30,05,53,9.20
2008,10,30,05,54,9.20
2008,10,30,05,55,9.20
2008,10,30,05,56,9.20
2008,10,30,05,57,9.20
2008,10,30,05,58,9.20
2008,10,30,05,59,9.20
2008,10,30,06,00,9.20
2008,10,30,06,01,9.10
2008,10,30,06,02,9.10
2008,10,30,06,03,9.10
2008,10,30,06,04,9.10
2008,10,30,06,05,9.10
2008,10,30,06,06,9.10
2008,10,30,06,07,9.00
2008,10,30,06,08,9.00
2008,10,30,06,09,9.00
2008,10,30,06,10,8.90
2008,10,30,06,11,8.90
2008,10,30,06,12,8.90
2008,10,30,06,13,8.90
2008,10,30,06,14,8.90
2008,10,30,06,15,8.90
2008,10,30,06,16,8.90
2008,10,30,06,17,8.90
2008,10,30,06,18,8.90
2008,10,30,06,19,8.80
2008,10,30,06,20,8.80
2008,10,30,06,21,8.80
2008,10,30,06,22,8.80
2008,10,30,06,23,8.80
2008,10,30,06,24,8.70
2008,10,30,06,25,8.70
2008,10,30,06,26,8.70
2008,10,30,06,27,8.70
2008,10,30,06,28,8.70
2008,10,30,06,29,8.70
2008,10,30,06,30,8.60
2008,10,30,06,31,8.60
2008,10,30,06,32,8.60
2008,10,30,06,33,8.50
2008,10,30,06,34,8.50
2008,10,30,06,35,8.50
2008,10,30,06,36,8.40
2008,10,30,06,37,8.30
2008,10,30,06,38,8.30
2008,10,30,06,39,8.30
2008,10,30,06,40,8.30
2008,10,30,06,41,8.20
2008,10,30,06,42,8.20
2008,10,30,06,43,8.20
2008,10,30,06,44,8.10
2008,10,30,06,45,8.10
2008,10,30,06,46,8.10
2008,10,30,06,47,8.00
2008,10,30,06,48,8.00
2008,10,30,06,49,8.00
2008,10,30,06,50,7.90
2008,10,30,06,51,7.90
2008,10,30,06,52,7.90
2008,10,30,06,53,7.90
2008,10,30,06,54,7.80
2008,10,30,06,55,7.80
2008,10,30,06,56,7.80
2008,10,30,06,57,7.80
2008,10,30,06,58,7.70
2008,10,30,06,59,7.70
2008,10,30,07,00,7.70
2008,10,30,07,01,7.70
2008,10,30,07,02,7.70
2008,10,30,07,03,7.70
2008,10,30,07,04,7.70
2008,10,30,07,05,7.60
2008,10,30,07,06,7.60
2008,10,30,07,07,7.60
2008,10,30,07,08,7.60
2008,10,30,07,09,7.60
2008,10,30,07,10,7.60
2008,10,30,07,11,7.60
2008,10,30,07,12,7.60
2008,10,30,07,13,7.60
2008,10,30,07,14,7.60
2008,10,30,07,15,7.60
2008,10,30,07,16,7.60
2008,10,30,07,17,7.60
2008,10,30,07,18,7.60
2008,10,30,07,19,7.70
2008,10,30,07,20,7.70
2008,10,30,07,21,7.70
2008,10,30,07,22,7.70
2008,10,30,07,23,7.70
2008,10,30,07,24,7.70
2008,10,30,07,25,7.70
2008,10,30,07,26,7.70
2008,10,30,07,27,7.70
2008,10,30,07,28,7.70
2008,10,30,07,29,7.70
2008,10,30,07,30,7.70
2008,10,30,07,31,7.80
2008,10,30,07,32,7.80
2008,10,30,07,33,7.80
2008,10,30,07,34,7.80
2008,10,30,07,35,7.80
2008,10,30,07,36,7.80
2008,10,30,07,37,7.80
2008,10,30,07,38,7.80
2008,10,30,07,39,7.80
2008,10,30,07,40,7.80
2008,10,30,07,41,7.80
2008,10,30,07,42,7.90
2008,10,30,07,43,7.90
2008,10,30,07,44,7.90
2008,10,30,07,45,7.90
2008,10,30,07,46,7.90
2008,10,30,07,47,7.90
2008,10,30,07,48,7.90
2008,10,30,07,49,8.00
2008,10,30,07,50,7.90
2008,10,30,07,51,7.90
2008,10,30,07,52,7.90
2008,10,30,07,53,7.90
2008,10,30,07,54,7.90
2008,10,30,07,55,7.90
2008,10,30,07,56,7.90
2008,10,30,07,57,7.90
2008,10,30,07,58,7.90
2008,10,30,07,59,7.80
2008,10,30,08,00,7.80
2008,10,30,08,01,7.80
2008,10,30,08,02,7.80
2008,10,30,08,03,7.80
2008,10,30,08,04,7.80
2008,10,30,08,05,7.80
2008,10,30,08,06,7.80
2008,10,30,08,07,7.80
2008,10,30,08,08,7.80
2008,10,30,08,09,7.80
2008,10,30,08,10,7.80
2008,10,30,08,11,7.80
2008,10,30,08,12,7.80
2008,10,30,08,13,7.80
2008,10,30,08,14,7.80
2008,10,30,08,15,7.80
2008,10,30,08,16,7.80
2008,10,30,08,17,7.80
2008,10,30,08,18,7.80
2008,10,30,08,19,7.80
2008,10,30,08,20,7.80
2008,10,30,08,21,7.80
2008,10,30,08,22,7.80
2008,10,30,08,23,7.80
2008,10,30,08,24,7.80
2008,10,30,08,25,7.80
2008,10,30,08,26,7.80
2008,10,30,08,27,7.80
2008,10,30,08,28,7.80
2008,10,30,08,29,7.90
2008,10,30,08,30,7.90
2008,10,30,08,31,7.90
2008,10,30,08,32,7.90
2008,10,30,08,33,7.90
2008,10,30,08,34,7.90
2008,10,30,08,35,7.90
2008,10,30,08,36,7.90
2008,10,30,08,37,7.90
2008,10,30,08,38,8.00
2008,10,30,08,39,8.00
2008,10,30,08,40,8.00
2008,10,30,08,41,8.00
2008,10,30,08,42,8.00
2008,10,30,08,43,8.00
2008,10,30,08,44,8.00
2008,10,30,08,45,8.00
2008,10,30,08,46,8.10
2008,10,30,08,47,8.10
2008,10,30,08,48,8.20
2008,10,30,08,49,8.20
2008,10,30,08,50,8.20
2008,10,30,08,51,8.20
2008,10,30,08,52,8.20
2008,10,30,08,53,8.20
2008,10,30,08,54,8.20
2008,10,30,08,55,8.10
2008,10,30,08,56,8.10
2008,10,30,08,57,8.10
2008,10,30,08,58,8.10
2008,10,30,08,59,8.00
2008,10,30,09,00,8.00
2008,10,30,09,01,8.00
2008,10,30,09,02,8.00
2008,10,30,09,03,8.00
2008,10,30,09,04,8.00
2008,10,30,09,05,8.00
2008,10,30,09,06,8.00
2008,10,30,09,07,8.10
2008,10,30,09,08,8.10
2008,10,30,09,09,8.10
2008,10,30,09,10,8.10
2008,10,30,09,11,8.20
2008,10,30,09,12,8.20
2008,10,30,09,13,8.20
2008,10,30,09,14,8.20
2008,10,30,09,15,8.20
2008,10,30,09,16,8.30
2008,10,30,09,17,8.30
2008,10,30,09,18,8.30
2008,10,30,09,19,8.30
2008,10,30,09,20,8.30
2008,10,30,09,21,8.30
2008,10,30,09,22,8.30
2008,10,30,09,23,8.30
2008,10,30,09,24,8.30
2008,10,30,09,25,8.30
2008,10,30,09,26,8.30
2008,10,30,09,27,8.30
2008,10,30,09,28,8.30
2008,10,30,09,29,8.40
2008,10,30,09,30,8.40
2008,10,30,09,31,8.40
2008,10,30,09,32,8.40
2008,10,30,09,33,8.40
2008,10,30,09,34,8.40
2008,10,30,09,35,8.40
2008,10,30,09,36,8.40
2008,10,30,09,37,8.40
2008,10,30,09,38,8.40
2008,10,30,09,39,8.40
2008,10,30,09,40,8.40
2008,10,30,09,41,8.40
2008,10,30,09,42,8.40
2008,10,30,09,43,8.40
2008,10,30,09,44,8.40
2008,10,30,09,45,8.40
2008,10,30,09,46,8.40
2008,10,30,09,47,8.40
2008,10,30,09,48,8.30
2008,10,30,09,49,8.30
2008,10,30,09,50,8.30
2008,10,30,09,51,8.30
2008,10,30,09,52,8.30
2008,10,30,09,53,8.40
2008,10,30,09,54,8.40
2008,10,30,09,55,8.40
2008,10,30,09,56,8.40
2008,10,30,09,57,8.40
2008,10,30,09,58,8.40
2008,10,30,09,59,8.40
2008,10,30,10,00,8.40
2008,10,30,10,01,8.40
2008,10,30,10,02,8.40
2008,10,30,10,03,8.40
2008,10,30,10,04,8.50
2008,10,30,10,05,8.50
2008,10,30,10,06,8.50
2008,10,30,10,07,8.40
2008,10,30,10,08,8.40
2008,10,30,10,09,8.40
2008,10,30,10,10,8.40
2008,10,30,10,11,8.40
2008,10,30,10,12,8.40
2008,10,30,10,13,8.40
2008,10,30,10,14,8.40
2008,10,30,10,15,8.40
2008,10,30,10,16,8.40
2008,10,30,10,17,8.40
2008,10,30,10,18,8.40
2008,10,30,10,19,8.40
2008,10,30,10,20,8.40
2008,10,30,10,21,8.40
2008,10,30,10,22,8.40
2008,10,30,10,23,8.40
2008,10,30,10,24,8.40
2008,10,30,10,25,8.40
2008,10,30,10,26,8.40
2008,10,30,10,27,8.40
2008,10,30,10,28,8.40
2008,10,30,10,29,8.40
2008,10,30,10,30,8.40
2008,10,30,10,31,8.40
2008,10,30,10,32,8.40
2008,10,30,10,33,8.40
2008,10,30,10,34,8.40
2008,10,30,10,35,8.40
2008,10,30,10,36,8.40
2008,10,30,10,37,8.40
2008,10,30,10,38,8.40
2008,10,30,10,39,8.40
2008,10,30,10,40,8.50
2008,10,30,10,41,8.50
2008,10,30,10,42,8.50
2008,10,30,10,43,8.50
2008,10,30,10,44,8.50
2008,10,30,10,45,8.50
2008,10,30,10,46,8.50
2008,10,30,10,47,8.60
2008,10,30,10,48,8.60
2008,10,30,10,49,8.60
2008,10,30,10,50,8.60
2008,10,30,10,51,8.60
2008,10,30,10,52,8.60
2008,10,30,10,53,8.60
2008,10,30,10,54,8.70
2008,10,30,10,55,8.70
2008,10,30,10,56,8.70
2008,10,30,10,57,8.70
2008,10,30,10,58,8.80
2008,10,30,10,59,8.80
2008,10,30,11,00,8.80
2008,10,30,11,01,8.80
2008,10,30,11,02,8.80
2008,10,30,11,03,8.90
2008,10,30,11,04,8.90
2008,10,30,11,05,8.90
2008,10,30,11,06,8.90
2008,10,30,11,07,8.90
2008,10,30,11,08,8.90
2008,10,30,11,09,8.90
2008,10,30,11,10,8.90
2008,10,30,11,11,9.00
2008,10,30,11,12,9.00
2008,10,30,11,13,9.10
2008,10,30,11,14,9.10
2008,10,30,11,15,9.10
2008,10,30,11,16,9.10
2008,10,30,11,17,9.10
2008,10,30,11,18,9.10
2008,10,30,11,19,9.20
2008,10,30,11,20,9.20
2008,10,30,11,21,9.20
2008,10,30,11,22,9.20
2008,10,30,11,23,9.20
2008,10,30,11,24,9.20
2008,10,30,11,25,9.20
2008,10,30,11,26,9.30
2008,10,30,11,27,9.30
2008,10,30,11,28,9.30
2008,10,30,11,29,9.40
2008,10,30,11,30,9.40
2008,10,30,11,31,9.40
2008,10,30,11,32,9.50
2008,10,30,11,33,9.50
2008,10,30,11,34,9.60
2008,10,30,11,35,9.60
2008,10,30,11,36,9.60
2008,10,30,11,37,9.60
2008,10,30,11,38,9.60
2008,10,30,11,39,9.60
2008,10,30,11,40,9.70
2008,10,30,11,41,9.70
2008,10,30,11,42,9.70
2008,10,30,11,43,9.70
2008,10,30,11,44,9.80
2008,10,30,11,45,9.80
2008,10,30,11,46,9.80
2008,10,30,11,47,9.80
2008,10,30,11,48,9.90
2008,10,30,11,49,9.90
2008,10,30,11,50,9.90
2008,10,30,11,51,10.00
2008,10,30,11,52,10.00
2008,10,30,11,53,10.00
2008,10,30,11,54,10.10
2008,10,30,11,55,10.10
2008,10,30,11,56,10.10
2008,10,30,11,57,10.10
2008,10,30,11,58,10.00
2008,10,30,11,59,10.00
2008,10,30,12,00,10.00
2008,10,30,12,01,10.00
2008,10,30,12,02,10.00
2008,10,30,12,03,10.00
2008,10,30,12,04,10.00
2008,10,30,12,05,10.00
2008,10,30,12,06,10.00
2008,10,30,12,07,10.00
2008,10,30,12,08,10.00
2008,10,30,12,09,10.10
2008,10,30,12,10,10.10
2008,10,30,12,11,10.10
2008,10,30,12,12,10.00
2008,10,30,12,13,10.00
2008,10,30,12,14,9.90
2008,10,30,12,15,9.90
2008,10,30,12,16,9.90
2008,10,30,12,17,9.90
2008,10,30,12,18,9.90
2008,10,30,12,19,9.90
2008,10,30,12,20,9.90
2008,10,30,12,21,9.90
2008,10,30,12,22,9.90
2008,10,30,12,23,9.90
2008,10,30,12,24,9.90
2008,10,30,12,25,9.80
2008,10,30,12,26,9.80
2008,10,30,12,27,9.80
2008,10,30,12,28,9.80
2008,10,30,12,29,9.80
2008,10,30,12,30,9.80
2008,10,30,12,31,9.80
2008,10,30,12,32,9.80
2008,10,30,12,33,9.80
2008,10,30,12,34,9.80
2008,10,30,12,35,9.80
2008,10,30,12,36,9.80
2008,10,30,12,37,9.80
2008,10,30,12,38,9.80
2008,10,30,12,39,9.90
2008,10,30,12,40,9.90
2008,10,30,12,41,9.90
2008,10,30,12,42,9.90
2008,10,30,12,43,9.90
2008,10,30,12,44,10.00
2008,10,30,12,45,10.00
2008,10,30,12,46,10.00
2008,10,30,12,47,10.10
2008,10,30,12,48,10.10
2008,10,30,12,49,10.10
2008,10,30,12,50,10.10
2008,10,30,12,51,10.10
2008,10,30,12,52,10.10
2008,10,30,12,53,10.20
2008,10,30,12,54,10.20
2008,10,30,12,55,10.20
2008,10,30,12,56,10.20
2008,10,30,12,57,10.20
2008,10,30,12,58,10.10
2008,10,30,12,59,10.10
2008,10,30,13,00,10.10
2008,10,30,13,01,10.10
2008,10,30,13,02,10.10
2008,10,30,13,03,10.10
2008,10,30,13,04,10.10
2008,10,30,13,05,10.10
2008,10,30,13,06,10.10
2008,10,30,13,07,10.10
2008,10,30,13,08,10.10
2008,10,30,13,09,10.10
2008,10,30,13,10,10.20
2008,10,30,13,11,10.10
2008,10,30,13,12,10.10
2008,10,30,13,13,10.10
2008,10,30,13,14,10.10
2008,10,30,13,15,10.10
2008,10,30,13,16,10.10
2008,10,30,13,17,10.10
2008,10,30,13,18,10.10
2008,10,30,13,19,10.10
2008,10,30,13,20,10.10
2008,10,30,13,21,10.10
2008,10,30,13,22,10.00
2008,10,30,13,23,10.00
2008,10,30,13,24,9.90
2008,10,30,13,25,9.90
2008,10,30,13,26,9.90
2008,10,30,13,27,9.80
2008,10,30,13,28,9.80
2008,10,30,13,29,9.80
2008,10,30,13,30,9.80
2008,10,30,13,31,9.80
2008,10,30,13,32,9.80
2008,10,30,13,33,9.80
2008,10,30,13,34,9.80
2008,10,30,13,35,9.80
2008,10,30,13,36,9.80
2008,10,30,13,37,9.80
2008,10,30,13,38,9.80
2008,10,30,13,39,9.80
2008,10,30,13,40,9.80
2008,10,30,13,41,9.80
2008,10,30,13,42,9.80
2008,10,30,13,43,9.80
2008,10,30,13,44,9.90
2008,10,30,13,45,9.90
2008,10,30,13,46,9.90
2008,10,30,13,47,9.90
2008,10,30,13,48,9.90
2008,10,30,13,49,9.90
2008,10,30,13,50,10.00
2008,10,30,13,51,10.00
2008,10,30,13,52,10.00
2008,10,30,13,53,10.00
2008,10,30,13,54,10.00
2008,10,30,13,55,10.00
2008,10,30,13,56,10.00
2008,10,30,13,57,10.10
2008,10,30,13,58,10.10
2008,10,30,13,59,10.10
2008,10,30,14,00,10.10
2008,10,30,14,01,10.10
2008,10,30,14,02,10.10
2008,10,30,14,03,10.20
2008,10,30,14,04,10.20
2008,10,30,14,05,10.20
2008,10,30,14,06,10.20
2008,10,30,14,07,10.20
2008,10,30,14,08,10.20
2008,10,30,14,09,10.20
2008,10,30,14,10,10.10
2008,10,30,14,11,10.20
2008,10,30,14,12,10.20
2008,10,30,14,13,10.20
2008,10,30,14,14,10.20
2008,10,30,14,15,10.20
2008,10,30,14,16,10.20
2008,10,30,14,17,10.20
2008,10,30,14,18,10.20
2008,10,30,14,19,10.20
2008,10,30,14,20,10.20
2008,10,30,14,21,10.20
2008,10,30,14,22,10.20
2008,10,30,14,23,10.10
2008,10,30,14,24,10.10
2008,10,30,14,25,10.10
2008,10,30,14,26,10.10
2008,10,30,14,27,10.20
2008,10,30,14,28,10.20
2008,10,30,14,29,10.20
2008,10,30,14,30,10.20
2008,10,30,14,31,10.20
2008,10,30,14,32,10.20
2008,10,30,14,33,10.20
2008,10,30,14,34,10.20
2008,10,30,14,35,10.20
2008,10,30,14,36,10.30
2008,10,30,14,37,10.30
2008,10,30,14,38,10.30
2008,10,30,14,39,10.20
2008,10,30,14,40,10.20
2008,10,30,14,41,10.20
2008,10,30,14,42,10.20
2008,10,30,14,43,10.10
2008,10,30,14,44,10.10
2008,10,30,14,45,10.10
2008,10,30,14,46,10.10
2008,10,30,14,47,10.00
2008,10,30,14,48,10.00
2008,10,30,14,49,9.90
2008,10,30,14,50,9.90
2008,10,30,14,51,9.90
2008,10,30,14,52,9.90
2008,10,30,14,53,9.90
2008,10,30,14,54,9.80
2008,10,30,14,55,9.80
2008,10,30,14,56,9.80
2008,10,30,14,57,9.80
2008,10,30,14,58,9.80
2008,10,30,14,59,9.80
2008,10,30,15,00,9.80
2008,10,30,15,01,9.80
2008,10,30,15,02,9.90
2008,10,30,15,03,9.90
2008,10,30,15,04,9.90
2008,10,30,15,05,9.90
2008,10,30,15,06,9.90
2008,10,30,15,07,9.90
2008,10,30,15,08,9.90
2008,10,30,15,09,10.00
2008,10,30,15,10,10.00
2008,10,30,15,11,10.00
2008,10,30,15,12,10.00
2008,10,30,15,13,10.00
2008,10,30,15,14,10.10
2008,10,30,15,15,10.10
2008,10,30,15,16,10.10
2008,10,30,15,17,10.10
2008,10,30,15,18,10.10
2008,10,30,15,19,10.10
2008,10,30,15,20,10.10
2008,10,30,15,21,10.10
2008,10,30,15,22,10.00
2008,10,30,15,23,10.00
2008,10,30,15,24,10.00
2008,10,30,15,25,10.00
2008,10,30,15,26,9.90
2008,10,30,15,27,9.90
2008,10,30,15,28,9.90
2008,10,30,15,29,9.90
2008,10,30,15,30,9.90
2008,10,30,15,31,9.90
2008,10,30,15,32,9.80
2008,10,30,15,33,9.80
2008,10,30,15,34,9.80
2008,10,30,15,35,9.80
2008,10,30,15,36,9.80
2008,10,30,15,37,9.80
2008,10,30,15,38,9.80
2008,10,30,15,39,9.80
2008,10,30,15,40,9.80
2008,10,30,15,41,9.80
2008,10,30,15,42,9.80
2008,10,30,15,43,9.80
2008,10,30,15,44,9.90
2008,10,30,15,45,9.90
2008,10,30,15,46,9.90
2008,10,30,15,47,9.90
2008,10,30,15,48,9.90
2008,10,30,15,49,9.90
2008,10,30,15,50,9.90
2008,10,30,15,51,9.90
2008,10,30,15,52,9.90
2008,10,30,15,53,9.90
2008,10,30,15,54,9.90
2008,10,30,15,55,10.00
2008,10,30,15,56,10.00
2008,10,30,15,57,10.00
2008,10,30,15,58,9.90
2008,10,30,15,59,9.90
2008,10,30,16,00,9.90
2008,10,30,16,01,9.90
2008,10,30,16,02,9.90
2008,10,30,16,03,9.90
2008,10,30,16,04,9.80
2008,10,30,16,05,9.80
2008,10,30,16,06,9.80
2008,10,30,16,07,9.80
2008,10,30,16,08,9.80
2008,10,30,16,09,9.80
2008,10,30,16,10,9.80
2008,10,30,16,11,9.70
2008,10,30,16,12,9.70
2008,10,30,16,13,9.70
2008,10,30,16,14,9.70
2008,10,30,16,15,9.70
2008,10,30,16,16,9.70
2008,10,30,16,17,9.70
2008,10,30,16,18,9.70
2008,10,30,16,19,9.70
2008,10,30,16,20,9.60
2008,10,30,16,21,9.60
2008,10,30,16,22,9.60
2008,10,30,16,23,9.60
2008,10,30,16,24,9.60
2008,10,30,16,25,9.60
2008,10,30,16,26,9.60
2008,10,30,16,27,9.70
2008,10,30,16,28,9.70
2008,10,30,16,29,9.70
2008,10,30,16,30,9.70
2008,10,30,16,31,9.70
2008,10,30,16,32,9.70
2008,10,30,16,33,9.70
2008,10,30,16,34,9.70
2008,10,30,16,35,9.70
2008,10,30,16,36,9.70
2008,10,30,16,37,9.70
2008,10,30,16,38,9.70
2008,10,30,16,39,9.70
2008,10,30,16,40,9.70
2008,10,30,16,41,9.70
2008,10,30,16,42,9.80
2008,10,30,16,43,9.80
2008,10,30,16,44,9.80
2008,10,30,16,45,9.80
2008,10,30,16,46,9.80
2008,10,30,16,47,9.80
2008,10,30,16,48,9.80
2008,10,30,16,49,9.80
2008,10,30,16,50,9.80
2008,10,30,16,51,9.80
2008,10,30,16,52,9.80
2008,10,30,16,53,9.70
2008,10,30,16,54,9.70
2008,10,30,16,55,9.70
2008,10,30,16,56,9.70
2008,10,30,16,57,9.70
2008,10,30,16,58,9.70
2008,10,30,16,59,9.70
2008,10,30,17,00,9.70
2008,10,30,17,01,9.70
2008,10,30,17,02,9.70
2008,10,30,17,03,9.70
2008,10,30,17,04,9.70
2008,10,30,17,05,9.70
2008,10,30,17,06,9.70
2008,10,30,17,07,9.70
2008,10,30,17,08,9.70
2008,10,30,17,09,9.70
2008,10,30,17,10,9.70
2008,10,30,17,11,9.70
2008,10,30,17,12,9.70
2008,10,30,17,13,9.70
2008,10,30,17,14,9.70
2008,10,30,17,15,9.70
2008,10,30,17,16,9.70
2008,10,30,17,17,9.70
2008,10,30,17,18,9.70
2008,10,30,17,19,9.70
2008,10,30,17,20,9.70
2008,10,30,17,21,9.70
2008,10,30,17,22,9.70
2008,10,30,17,23,9.70
2008,10,30,17,24,9.70
2008,10,30,17,25,9.70
2008,10,30,17,26,9.70
2008,10,30,17,27,9.70
2008,10,30,17,28,9.70
2008,10,30,17,29,9.70
2008,10,30,17,30,9.70
2008,10,30,17,31,9.70
2008,10,30,17,32,9.70
2008,10,30,17,33,9.70
2008,10,30,17,34,9.70
2008,10,30,17,35,9.70
2008,10,30,17,36,9.70
2008,10,30,17,37,9.70
2008,10,30,17,38,9.70
2008,10,30,17,39,9.70
2008,10,30,17,40,9.70
2008,10,30,17,41,9.80
2008,10,30,17,42,9.80
2008,10,30,17,43,9.80
2008,10,30,17,44,9.80
2008,10,30,17,45,9.80
2008,10,30,17,46,9.80
2008,10,30,17,47,9.80
2008,10,30,17,48,9.80
2008,10,30,17,49,9.80
2008,10,30,17,50,9.70
2008,10,30,17,51,9.70
2008,10,30,17,52,9.80
2008,10,30,17,53,9.80
2008,10,30,17,54,9.80
2008,10,30,17,55,9.80
2008,10,30,17,56,9.80
2008,10,30,17,57,9.80
2008,10,30,17,58,9.70
2008,10,30,17,59,9.70
2008,10,30,18,00,9.70